AAL3099 KCLT-KMSP

Flight info

Callsign AAL3099
Flight time 2h 32m
Altitude 38000
Route JOJJO5 DOOGE Q93 HEVAN COLNO KAMMA KKILR4
Aircraft A320/M-SDE3FGHIRWY/LB1

Departure

Time 2026-05-04 06:51
Airport Charlotte Douglas International Airport (KCLT)

Arrival

Time 2026-05-04 09:23
Airport Minneapolis–Saint Paul International Airport / Wold–Chamberlain Field (KMSP)
Time Latitude Longitude Altitude Speed Heading
2026-05-04 06:26 35.21791 -80.94466 738 ft 0 kts 294°
2026-05-04 06:40 35.21787 -80.94455 736 ft 4 kts 292°
2026-05-04 06:40 35.21779 -80.94423 737 ft 4 kts 274°
2026-05-04 06:40 35.21782 -80.94397 738 ft 4 kts 201°
2026-05-04 06:40 35.21788 -80.94394 738 ft 0 kts 178°
2026-05-04 06:45 35.21787 -80.94394 738 ft 1 kts 177°
2026-05-04 06:45 35.21767 -80.94393 736 ft 5 kts 177°
2026-05-04 06:45 35.21719 -80.94390 737 ft 9 kts 177°
2026-05-04 06:46 35.21681 -80.94334 736 ft 11 kts 92°
2026-05-04 06:46 35.21676 -80.94262 737 ft 8 kts 95°
2026-05-04 06:46 35.21671 -80.94188 738 ft 10 kts 94°
2026-05-04 06:46 35.21709 -80.94132 737 ft 9 kts 33°
2026-05-04 06:48 35.22108 -80.93721 749 ft 15 kts 356°
2026-05-04 06:48 35.22214 -80.93730 750 ft 16 kts 356°
2026-05-04 06:49 35.22330 -80.93740 751 ft 18 kts 356°
2026-05-04 06:50 35.21329 -80.93516 743 ft 132 kts 176°
2026-05-04 06:51 35.20652 -80.93466 768 ft 159 kts 176°
2026-05-04 06:51 35.19522 -80.93389 1299 ft 163 kts 177°
2026-05-04 06:51 35.18396 -80.93299 2013 ft 164 kts 180°
2026-05-04 06:51 35.17249 -80.93114 2631 ft 175 kts 176°
2026-05-04 06:52 35.15977 -80.92842 2980 ft 198 kts 175°
2026-05-04 06:52 35.14538 -80.92529 3342 ft 223 kts 175°
2026-05-04 06:52 35.12921 -80.92190 3796 ft 246 kts 175°
2026-05-04 06:52 35.11185 -80.91833 4520 ft 258 kts 175°
2026-05-04 06:53 35.09391 -80.91479 5380 ft 265 kts 174°
2026-05-04 06:53 35.07545 -80.91219 6239 ft 269 kts 185°
2026-05-04 06:53 35.05754 -80.91806 7020 ft 270 kts 212°
2026-05-04 06:53 35.04391 -80.93322 7706 ft 273 kts 238°
2026-05-04 06:54 35.03671 -80.95432 7976 ft 270 kts 259°
2026-05-04 06:54 35.03314 -80.97678 8313 ft 271 kts 262°
2026-05-04 06:54 35.02987 -80.99949 8708 ft 271 kts 262°
2026-05-04 06:54 35.02653 -81.02222 9165 ft 273 kts 262°
2026-05-04 06:55 35.02448 -81.04520 9628 ft 273 kts 277°
2026-05-04 06:55 35.02946 -81.06757 10267 ft 280 kts 298°
2026-05-04 06:55 35.04219 -81.08638 10534 ft 301 kts 324°
2026-05-04 06:55 35.06114 -81.09733 11099 ft 311 kts 338°
2026-05-04 06:56 35.08154 -81.10663 11834 ft 314 kts 337°
2026-05-04 06:57 35.22932 -81.17555 16566 ft 338 kts 336°
2026-05-04 06:58 35.25113 -81.18572 17167 ft 342 kts 335°
2026-05-04 06:58 35.27380 -81.19630 17771 ft 347 kts 335°
2026-05-04 06:58 35.29621 -81.20677 18383 ft 351 kts 335°
2026-05-04 06:58 35.31912 -81.21750 18931 ft 354 kts 335°
2026-05-04 06:59 35.34222 -81.22831 19517 ft 357 kts 335°
2026-05-04 06:59 35.36550 -81.23924 20120 ft 360 kts 334°
2026-05-04 06:59 35.38896 -81.25029 20715 ft 362 kts 334°
2026-05-04 06:59 35.41251 -81.26149 21301 ft 364 kts 332°
2026-05-04 07:01 35.52666 -81.42041 25029 ft 365 kts 302°
2026-05-04 07:01 35.54128 -81.44592 25492 ft 366 kts 302°
2026-05-04 07:02 35.55772 -81.47003 25960 ft 371 kts 312°
2026-05-04 07:02 35.57781 -81.49033 26414 ft 377 kts 319°
2026-05-04 07:02 35.59915 -81.50927 26859 ft 379 kts 319°
2026-05-04 07:02 35.62057 -81.52831 27298 ft 381 kts 320°
2026-05-04 07:03 35.64176 -81.54720 27724 ft 382 kts 319°
2026-05-04 07:03 35.66336 -81.56632 28187 ft 384 kts 320°
2026-05-04 07:03 35.68518 -81.58542 28626 ft 386 kts 320°
2026-05-04 07:03 35.70714 -81.60454 29056 ft 388 kts 320°
2026-05-04 07:04 35.72918 -81.62370 29478 ft 389 kts 320°
2026-05-04 07:04 35.75135 -81.64304 29895 ft 391 kts 320°
2026-05-04 07:04 35.77358 -81.66249 30282 ft 393 kts 320°
2026-05-04 07:04 35.79590 -81.68206 30634 ft 395 kts 320°
2026-05-04 07:05 35.81832 -81.70177 30991 ft 396 kts 320°
2026-05-04 07:05 35.84076 -81.72153 31340 ft 397 kts 320°
2026-05-04 07:05 35.86331 -81.74139 31691 ft 399 kts 320°
2026-05-04 07:05 35.88553 -81.76095 32154 ft 396 kts 320°
2026-05-04 07:06 35.93008 -81.80013 33188 ft 391 kts 320°
2026-05-04 07:06 35.95215 -81.81960 33712 ft 388 kts 320°
2026-05-04 07:06 35.97399 -81.83889 34223 ft 385 kts 320°
2026-05-04 07:07 35.99575 -81.85809 34633 ft 383 kts 320°
2026-05-04 07:08 36.14785 -81.99259 36756 ft 385 kts 319°
2026-05-04 07:09 36.16962 -82.01193 37028 ft 386 kts 319°
2026-05-04 07:09 36.19139 -82.03130 37301 ft 386 kts 318°
2026-05-04 07:09 36.21321 -82.05074 37571 ft 386 kts 318°
2026-05-04 07:09 36.23477 -82.06990 37825 ft 387 kts 318°
2026-05-04 07:10 36.25664 -82.08931 38046 ft 388 kts 318°
2026-05-04 07:12 36.43120 -82.24517 38116 ft 386 kts 318°
2026-05-04 07:12 36.47466 -82.28416 38126 ft 385 kts 318°
2026-05-04 07:13 36.51784 -82.32292 38133 ft 385 kts 318°
2026-05-04 07:13 36.56131 -82.36193 38137 ft 385 kts 318°
2026-05-04 07:14 36.66988 -82.45991 38130 ft 386 kts 318°
2026-05-04 07:15 36.71304 -82.49882 38128 ft 386 kts 318°
2026-05-04 07:15 36.75650 -82.53812 38121 ft 386 kts 318°
2026-05-04 07:16 36.79999 -82.57751 38125 ft 386 kts 318°
2026-05-04 07:16 36.84310 -82.61749 38130 ft 385 kts 317°
2026-05-04 07:17 36.88527 -82.65870 38137 ft 385 kts 316°
2026-05-04 07:17 36.92744 -82.70011 38133 ft 385 kts 316°
2026-05-04 07:18 36.96944 -82.74098 38133 ft 385 kts 317°
2026-05-04 07:18 37.01172 -82.78204 38125 ft 385 kts 317°
2026-05-04 07:19 37.05406 -82.82323 38135 ft 385 kts 317°
2026-05-04 07:19 37.09589 -82.86426 38117 ft 384 kts 316°
2026-05-04 07:20 37.13702 -82.90674 38106 ft 383 kts 315°
2026-05-04 07:20 37.17779 -82.94980 38106 ft 383 kts 315°
2026-05-04 07:22 37.34326 -83.11809 38092 ft 384 kts 317°
2026-05-04 07:23 37.38529 -83.15952 38092 ft 384 kts 316°
2026-05-04 07:23 37.42726 -83.20127 38095 ft 385 kts 317°
2026-05-04 07:24 37.46931 -83.24304 38094 ft 385 kts 317°
2026-05-04 07:24 37.51105 -83.28465 38082 ft 386 kts 317°
2026-05-04 07:26 37.67981 -83.45342 38077 ft 389 kts 317°
2026-05-04 07:27 37.72217 -83.49591 38081 ft 389 kts 317°
2026-05-04 07:27 37.76430 -83.53819 38083 ft 389 kts 317°
2026-05-04 07:28 37.80669 -83.58084 38085 ft 390 kts 317°
2026-05-04 07:28 37.84909 -83.62361 38084 ft 390 kts 317°
2026-05-04 07:29 37.89145 -83.66639 38078 ft 389 kts 317°
2026-05-04 07:29 37.93372 -83.70916 38071 ft 389 kts 317°
2026-05-04 07:30 37.97593 -83.75193 38065 ft 388 kts 317°
2026-05-04 07:30 38.01785 -83.79439 38068 ft 388 kts 317°
2026-05-04 07:31 38.06001 -83.83716 38069 ft 388 kts 317°
2026-05-04 07:33 38.22794 -84.00841 38070 ft 386 kts 317°
2026-05-04 07:33 38.26942 -84.05093 38066 ft 385 kts 317°
2026-05-04 07:34 38.31107 -84.09372 38060 ft 385 kts 317°
2026-05-04 07:34 38.35275 -84.13652 38046 ft 384 kts 317°
2026-05-04 07:35 38.39436 -84.17921 38043 ft 384 kts 317°
2026-05-04 07:35 38.43603 -84.22108 38036 ft 384 kts 319°
2026-05-04 07:36 38.47856 -84.26219 38037 ft 384 kts 319°
2026-05-04 07:38 38.64763 -84.42743 38014 ft 382 kts 319°
2026-05-04 07:38 38.68969 -84.46881 38009 ft 381 kts 319°
2026-05-04 07:39 38.73172 -84.51022 37992 ft 381 kts 319°
2026-05-04 07:39 38.77402 -84.55194 37996 ft 381 kts 319°
2026-05-04 07:40 38.81596 -84.59345 37988 ft 381 kts 318°
2026-05-04 07:40 38.85789 -84.63505 37982 ft 381 kts 319°
2026-05-04 07:41 38.89981 -84.67664 37979 ft 381 kts 318°
2026-05-04 07:41 38.94179 -84.71828 37977 ft 381 kts 319°
2026-05-04 07:42 38.98380 -84.75995 37982 ft 381 kts 318°
2026-05-04 07:42 39.02576 -84.80178 37978 ft 381 kts 318°
2026-05-04 07:43 39.06737 -84.84331 37986 ft 381 kts 318°
2026-05-04 07:43 39.10929 -84.88523 37974 ft 381 kts 318°
2026-05-04 07:44 39.15114 -84.92724 37977 ft 381 kts 318°
2026-05-04 07:44 39.19296 -84.96917 37959 ft 381 kts 318°
2026-05-04 07:45 39.23487 -85.01113 37949 ft 381 kts 318°
2026-05-04 07:45 39.27672 -85.05318 37945 ft 382 kts 318°
2026-05-04 07:46 39.31855 -85.09541 37939 ft 382 kts 318°
2026-05-04 07:46 39.36025 -85.13741 37939 ft 383 kts 319°
2026-05-04 07:47 39.40354 -85.17851 37939 ft 384 kts 320°
2026-05-04 07:49 39.57728 -85.34084 37945 ft 385 kts 320°
2026-05-04 07:49 39.62021 -85.38151 37937 ft 385 kts 320°
2026-05-04 07:50 39.66350 -85.42252 37938 ft 385 kts 320°
2026-05-04 07:50 39.70686 -85.46360 37930 ft 385 kts 320°
2026-05-04 07:51 39.75007 -85.50472 37928 ft 386 kts 320°
2026-05-04 07:51 39.79342 -85.54598 37927 ft 386 kts 320°
2026-05-04 07:52 39.83708 -85.58754 37925 ft 387 kts 320°
2026-05-04 07:52 39.88050 -85.62895 37917 ft 387 kts 320°
2026-05-04 07:54 40.05428 -85.79532 37917 ft 388 kts 320°
2026-05-04 07:55 40.09744 -85.83681 37918 ft 388 kts 320°
2026-05-04 07:55 40.14085 -85.87874 37915 ft 388 kts 320°
2026-05-04 07:56 40.18426 -85.92076 37915 ft 389 kts 320°
2026-05-04 07:56 40.22782 -85.96277 37931 ft 389 kts 320°
2026-05-04 07:57 40.27133 -86.00478 37940 ft 389 kts 320°
2026-05-04 07:57 40.31489 -86.04700 37941 ft 389 kts 320°
2026-05-04 07:58 40.35808 -86.08901 37906 ft 389 kts 320°
2026-05-04 07:58 40.40158 -86.13138 37894 ft 389 kts 320°
2026-05-04 07:59 40.44510 -86.17374 37901 ft 389 kts 320°
2026-05-04 07:59 40.48863 -86.21614 37899 ft 389 kts 320°
2026-05-04 08:00 40.53211 -86.25862 37887 ft 390 kts 320°
2026-05-04 08:02 40.70560 -86.42906 37875 ft 390 kts 320°
2026-05-04 08:02 40.74201 -86.46496 37873 ft 390 kts 320°
2026-05-04 08:03 40.78553 -86.50797 37869 ft 391 kts 320°
2026-05-04 08:03 40.83615 -86.55805 37866 ft 392 kts 320°
2026-05-04 08:04 40.87267 -86.59428 37859 ft 392 kts 320°
2026-05-04 08:04 40.91608 -86.63722 37855 ft 392 kts 320°
2026-05-04 08:05 40.95975 -86.68063 37849 ft 393 kts 320°
2026-05-04 08:05 41.00352 -86.72416 37843 ft 394 kts 319°
2026-05-04 08:06 41.04731 -86.76785 37838 ft 395 kts 319°
2026-05-04 08:06 41.09123 -86.81178 37836 ft 395 kts 319°
2026-05-04 08:08 41.26710 -86.98822 37827 ft 397 kts 320°
2026-05-04 08:11 41.46538 -87.18873 37824 ft 398 kts 320°
2026-05-04 08:11 41.53619 -87.24686 37800 ft 402 kts 331°
2026-05-04 08:12 41.58672 -87.27907 37795 ft 402 kts 331°
2026-05-04 08:12 41.63749 -87.31159 37795 ft 402 kts 331°
2026-05-04 08:13 41.68832 -87.34419 37799 ft 402 kts 331°
2026-05-04 08:13 41.73875 -87.37653 37804 ft 402 kts 331°
2026-05-04 08:14 41.78915 -87.40895 37810 ft 402 kts 331°
2026-05-04 08:16 41.98980 -87.53876 37800 ft 400 kts 331°
2026-05-04 08:16 42.03991 -87.57131 37788 ft 399 kts 331°
2026-05-04 08:17 42.08959 -87.60361 37793 ft 399 kts 331°
2026-05-04 08:17 42.13946 -87.63610 37789 ft 398 kts 331°
2026-05-04 08:19 42.33814 -87.76603 37766 ft 397 kts 331°
2026-05-04 08:20 42.38788 -87.79880 37760 ft 397 kts 331°
2026-05-04 08:20 42.43758 -87.83156 37761 ft 397 kts 331°
2026-05-04 08:21 42.48732 -87.86429 37759 ft 398 kts 331°
2026-05-04 08:21 42.53674 -87.89697 37772 ft 398 kts 331°
2026-05-04 08:22 42.58646 -87.92994 37767 ft 398 kts 331°
2026-05-04 08:24 42.78528 -88.06216 37768 ft 399 kts 331°
2026-05-04 08:24 42.83541 -88.09559 37752 ft 399 kts 331°
2026-05-04 08:25 42.88486 -88.12874 37761 ft 399 kts 331°
2026-05-04 08:25 42.93466 -88.16220 37762 ft 399 kts 331°
2026-05-04 08:27 43.12865 -88.30589 37755 ft 395 kts 313°
2026-05-04 08:28 43.16351 -88.36385 37751 ft 395 kts 308°
2026-05-04 08:28 43.19792 -88.42257 37751 ft 395 kts 308°
2026-05-04 08:29 43.23240 -88.48129 37745 ft 396 kts 308°
2026-05-04 08:31 43.37009 -88.71759 37748 ft 397 kts 308°
2026-05-04 08:33 43.50715 -88.95491 37744 ft 397 kts 308°
2026-05-04 08:35 43.64366 -89.19311 37724 ft 396 kts 307°
2026-05-04 08:35 43.67771 -89.25281 37719 ft 396 kts 307°
2026-05-04 08:37 43.79632 -89.46180 37711 ft 395 kts 307°
2026-05-04 08:38 43.83037 -89.52208 37710 ft 395 kts 307°
2026-05-04 08:38 43.86397 -89.58163 37713 ft 395 kts 307°
2026-05-04 08:40 43.99873 -89.82194 37703 ft 394 kts 307°
2026-05-04 08:41 44.03229 -89.88207 37703 ft 394 kts 307°
2026-05-04 08:41 44.06574 -89.94224 37694 ft 393 kts 306°
2026-05-04 08:42 44.09955 -90.00208 37682 ft 393 kts 308°
2026-05-04 08:42 44.13407 -90.06043 37683 ft 393 kts 308°
2026-05-04 08:43 44.16885 -90.11909 37678 ft 393 kts 308°
2026-05-04 08:43 44.20337 -90.17802 37680 ft 392 kts 308°
2026-05-04 08:44 44.23771 -90.23714 37682 ft 392 kts 308°
2026-05-04 08:46 44.36484 -90.48480 36683 ft 396 kts 293°
2026-05-04 08:46 44.37534 -90.52028 36420 ft 394 kts 293°
2026-05-04 08:46 44.38581 -90.55553 36153 ft 391 kts 293°
2026-05-04 08:46 44.39620 -90.59049 35896 ft 388 kts 293°
2026-05-04 08:47 44.40646 -90.62521 35636 ft 385 kts 293°
2026-05-04 08:47 44.41650 -90.65926 35386 ft 382 kts 293°
2026-05-04 08:47 44.42658 -90.69347 35133 ft 380 kts 293°
2026-05-04 08:47 44.43661 -90.72747 34885 ft 377 kts 293°
2026-05-04 08:48 44.44659 -90.76121 34629 ft 374 kts 293°
2026-05-04 08:48 44.45650 -90.79476 34391 ft 371 kts 293°
2026-05-04 08:48 44.46632 -90.82805 34146 ft 369 kts 293°
2026-05-04 08:48 44.47604 -90.86111 33904 ft 366 kts 293°
2026-05-04 08:49 44.48566 -90.89395 33664 ft 363 kts 293°
2026-05-04 08:50 44.54222 -91.08705 32020 ft 351 kts 293°
2026-05-04 08:50 44.55147 -91.11871 31750 ft 350 kts 292°
2026-05-04 08:51 44.56055 -91.14977 31496 ft 348 kts 292°
2026-05-04 08:51 44.56969 -91.18108 31234 ft 346 kts 292°
2026-05-04 08:51 44.57873 -91.21234 30978 ft 345 kts 292°
2026-05-04 08:51 44.58770 -91.24342 30719 ft 343 kts 292°
2026-05-04 08:52 44.59665 -91.27438 30470 ft 342 kts 292°
2026-05-04 08:52 44.60554 -91.30524 30219 ft 340 kts 292°
2026-05-04 08:52 44.61441 -91.33600 29965 ft 339 kts 292°
2026-05-04 08:52 44.62324 -91.36660 29723 ft 338 kts 292°
2026-05-04 08:53 44.63204 -91.39712 29439 ft 336 kts 291°
2026-05-04 08:54 44.69248 -91.60664 27499 ft 326 kts 291°
2026-05-04 08:55 44.70092 -91.63618 27230 ft 325 kts 291°
2026-05-04 08:55 44.70929 -91.66567 26967 ft 324 kts 291°
2026-05-04 08:55 44.71765 -91.69500 26705 ft 323 kts 291°
2026-05-04 08:55 44.72601 -91.72423 26435 ft 322 kts 291°
2026-05-04 08:57 44.78289 -91.92598 24539 ft 311 kts 289°
2026-05-04 09:01 44.86157 -92.32800 18550 ft 324 kts 275°
2026-05-04 09:01 44.86332 -92.35960 18099 ft 322 kts 274°
2026-05-04 09:01 44.86489 -92.39100 17598 ft 320 kts 274°
2026-05-04 09:01 44.86637 -92.42209 17272 ft 317 kts 274°
2026-05-04 09:02 44.86779 -92.45315 16995 ft 318 kts 274°
2026-05-04 09:02 44.86921 -92.48419 16590 ft 316 kts 273°
2026-05-04 09:02 44.86979 -92.51506 16149 ft 314 kts 270°
2026-05-04 09:02 44.86949 -92.54578 15713 ft 313 kts 269°
2026-05-04 09:03 44.86879 -92.57631 15265 ft 311 kts 268°
2026-05-04 09:03 44.86802 -92.60668 14835 ft 310 kts 269°
2026-05-04 09:03 44.86731 -92.63694 14393 ft 308 kts 269°
2026-05-04 09:03 44.86670 -92.66702 13963 ft 306 kts 269°
2026-05-04 09:04 44.86617 -92.69639 13667 ft 299 kts 269°
2026-05-04 09:04 44.86568 -92.72511 13546 ft 286 kts 269°
2026-05-04 09:04 44.86523 -92.75262 13368 ft 277 kts 269°
2026-05-04 09:04 44.86495 -92.77961 13033 ft 274 kts 272°
2026-05-04 09:05 44.86803 -92.80591 12660 ft 272 kts 286°
2026-05-04 09:05 44.87527 -92.83054 12259 ft 272 kts 292°
2026-05-04 09:05 44.88304 -92.85472 11877 ft 270 kts 292°
2026-05-04 09:05 44.89073 -92.87887 11510 ft 269 kts 292°
2026-05-04 09:06 44.89837 -92.90289 11146 ft 268 kts 292°
2026-05-04 09:07 44.94988 -93.06628 8884 ft 238 kts 291°
2026-05-04 09:08 44.95661 -93.08765 8252 ft 238 kts 291°
2026-05-04 09:08 44.96382 -93.10840 7959 ft 234 kts 298°
2026-05-04 09:08 44.97214 -93.12779 7897 ft 229 kts 297°
2026-05-04 09:08 44.98026 -93.14706 7841 ft 229 kts 297°
2026-05-04 09:09 44.98836 -93.16638 7792 ft 228 kts 297°
2026-05-04 09:09 44.99644 -93.18570 7739 ft 228 kts 297°
2026-05-04 09:09 45.00451 -93.20498 7687 ft 228 kts 297°
2026-05-04 09:09 45.01256 -93.22426 7607 ft 227 kts 297°
2026-05-04 09:10 45.02059 -93.24348 7553 ft 227 kts 297°
2026-05-04 09:10 45.02864 -93.26274 7501 ft 227 kts 297°
2026-05-04 09:10 45.03651 -93.28154 7443 ft 217 kts 297°
2026-05-04 09:10 45.04152 -93.29348 7416 ft 209 kts 297°
2026-05-04 09:11 45.04871 -93.31066 7364 ft 196 kts 297°
2026-05-04 09:11 45.05551 -93.32693 7326 ft 190 kts 296°
2026-05-04 09:11 45.06439 -93.34819 7270 ft 189 kts 296°
2026-05-04 09:11 45.07107 -93.36422 7224 ft 189 kts 296°
2026-05-04 09:12 45.07775 -93.38020 7191 ft 189 kts 296°
2026-05-04 09:12 45.08441 -93.39617 7148 ft 188 kts 296°
2026-05-04 09:14 45.13067 -93.50733 6874 ft 187 kts 296°
2026-05-04 09:14 45.13511 -93.51801 6875 ft 186 kts 296°
2026-05-04 09:14 45.14157 -93.53361 6876 ft 186 kts 296°
2026-05-04 09:14 45.14812 -93.54943 6878 ft 186 kts 296°
2026-05-04 09:15 45.15467 -93.56524 6879 ft 186 kts 296°
2026-05-04 09:15 45.15969 -93.58177 6879 ft 182 kts 277°
2026-05-04 09:15 45.15830 -93.59941 6877 ft 185 kts 250°
2026-05-04 09:15 45.14988 -93.61361 6877 ft 199 kts 220°
2026-05-04 09:17 45.04131 -93.56656 6343 ft 257 kts 124°
2026-05-04 09:18 45.03219 -93.54482 6022 ft 257 kts 126°
2026-05-04 09:18 45.02291 -93.52312 5666 ft 259 kts 126°
2026-05-04 09:18 45.01363 -93.50144 5332 ft 253 kts 126°
2026-05-04 09:18 45.00472 -93.48058 4998 ft 243 kts 127°
2026-05-04 09:19 44.99616 -93.46061 4677 ft 232 kts 127°
2026-05-04 09:19 44.98787 -93.44132 4391 ft 227 kts 128°
2026-05-04 09:19 44.97975 -93.42242 4108 ft 222 kts 128°
2026-05-04 09:19 44.97198 -93.40428 3811 ft 211 kts 129°
2026-05-04 09:20 44.96457 -93.38700 3521 ft 202 kts 130°
2026-05-04 09:20 44.95749 -93.37053 3257 ft 189 kts 131°
2026-05-04 09:20 44.95091 -93.35521 3021 ft 177 kts 132°
2026-05-04 09:20 44.94471 -93.34082 2847 ft 167 kts 133°
2026-05-04 09:21 44.93883 -93.32720 2613 ft 162 kts 134°
2026-05-04 09:21 44.93299 -93.31371 2410 ft 159 kts 134°
2026-05-04 09:21 44.92725 -93.30041 2195 ft 158 kts 134°
2026-05-04 09:21 44.92158 -93.28727 1981 ft 156 kts 134°
2026-05-04 09:22 44.91601 -93.27425 1766 ft 152 kts 131°
2026-05-04 09:22 44.91061 -93.26177 1591 ft 148 kts 130°
2026-05-04 09:22 44.90551 -93.24957 1317 ft 139 kts 126°
2026-05-04 09:22 44.90052 -93.23827 1191 ft 134 kts 129°
2026-05-04 09:23 44.89569 -93.22698 997 ft 135 kts 128°
2026-05-04 09:23 44.89092 -93.21614 838 ft 121 kts 125°
2026-05-04 09:23 44.88766 -93.20896 834 ft 49 kts 121°
2026-05-04 09:23 44.88603 -93.20524 833 ft 34 kts 120°
2026-05-04 09:25 44.88350 -93.20221 834 ft 8 kts 121°
2026-05-04 09:25 44.88300 -93.20186 833 ft 11 kts 212°
2026-05-04 09:26 44.88303 -93.20270 832 ft 10 kts 303°
2026-05-04 09:26 44.88345 -93.20363 832 ft 13 kts 302°
2026-05-04 09:26 44.88394 -93.20475 828 ft 7 kts 301°
2026-05-04 09:26 44.88422 -93.20544 829 ft 9 kts 300°
2026-05-04 09:27 44.88455 -93.20623 831 ft 7 kts 300°
2026-05-04 09:27 44.88469 -93.20657 833 ft 0 kts 300°
2026-05-04 09:27 44.88476 -93.20675 833 ft 6 kts 301°
2026-05-04 09:27 44.88504 -93.20739 832 ft 10 kts 301°
2026-05-04 09:28 44.88548 -93.20828 831 ft 12 kts 313°
2026-05-04 09:28 44.88590 -93.20892 831 ft 7 kts 307°
2026-05-04 09:28 44.88573 -93.20953 832 ft 9 kts 229°
2026-05-04 09:28 44.88562 -93.20971 831 ft 2 kts 230°
2026-05-04 09:29 44.88556 -93.20983 833 ft 1 kts 230°